INTELSAT 17 (IS-17)

Last updated on Fri Dec 19 2025 00:02:50 GMT+0000 (Coordinated Universal Time)

1 37238U 10065B 25352.56704135 .00000000 00000+0 00000+0 0 9991 2 37238 0.0241 60.7923 0002736 225.4994 71.2450 1.00271149 51439
UTC large
Height (km)
Speed (km/s)
/
Latitude / Longitude
Inclination (degrees)
Orbital Period (minutes)
Azimuth
Elevation
Range (km)
Doppler Factor

Next 0 passes for location: London (51.5072 / 0.1276)

Sorry there are no passes over London.